Change the Weather History Date:

Friday, November 30, 2012

  Actual Average Record
Temperature  
Mean Temperature 63 °F 47 °F  
Max Temperature 68 °F 58 °F 72 °F (1998)
Min Temperature 57 °F 36 °F 24 °F (2004)
Degree Days  
Heating Degree Days 2    
Month to date heating degree days 316  
Since 1 July heating degree days 399  
Cooling Degree Days 0    
Month to date cooling degree days 0  
Year to date cooling degree days 2018  
Growing Degree Days 12 (Base 50)    
Moisture  
Dew Point 55 °F    
Average Humidity 82    
Maximum Humidity 100    
Minimum Humidity 63    
Precipitation  
Precipitation 0.06 in 0.02 in 0.06 in (2012)
Month to date precipitation 0.34 1.00  
Year to date precipitation 5.06 8.47  
Since 1 July precipitation 0.48 1.71  
Snow  
Snow 0.00 in - - ()
Month to date snowfall 0.0  
Since 1 July snowfall 0.0  
Since 1 September snowfall 0.0  
Snow Depth 0.00 in    
Sea Level Pressure  
Sea Level Pressure 30.05 in    
Wind  
Wind Speed 6 mph (SSE)    
Max Wind Speed 20 mph    
Max Gust Speed 24 mph    
Visibility 8 miles    
Events Rain    
T = Trace of Precipitation, MM = Missing Value Source: NWS Daily Summary

Daily Weather History Graph

Daily Weather History Graph

Search for Another Location

Airport or City:

Trip Planner

Search our weather history database for the weather conditions in past years. The results will help you decide how hot, cold, wet, or windy it might be!

Date:

Astronomy

Nov. 30, 2012 Rise Set
Actual Time 6:51 AM PST 4:43 PM PST
Civil Twilight 6:22 AM PST 5:11 PM PST
Nautical Twilight 5:50 AM PST 5:43 PM PST
Astronomical Twilight 5:19 AM PST 6:14 PM PST
Moon 6:42 PM PST 8:26 AM PST
Length of Visible Light 10h 49m
Length of Day
9h 52m
Waning Gibbous, 96% of the Moon is Illuminated
Nov 30
Waning Gibbous
Dec 6
Last Quarter
Dec 13
New
Dec 19
First Quarter
Dec 28
Full

Hourly Weather History & Observations

Time (PST) Temp. Dew Point Humidity Pressure Visibility Wind Dir Wind Speed Gust Speed Precip Events Conditions
12:53 AM 57.9 °F 54.0 °F 87% 30.06 in 8.0 mi SE 4.6 mph - N/A   Clear
1:53 AM 57.9 °F 54.0 °F 87% 30.07 in 8.0 mi SE 3.5 mph - N/A   Mostly Cloudy
2:53 AM 57.9 °F 54.0 °F 87% 30.05 in 7.0 mi ESE 3.5 mph - N/A   Overcast
3:53 AM 57.9 °F 54.0 °F 87% 30.04 in 7.0 mi Calm Calm - N/A   Overcast
4:53 AM 57.9 °F 54.0 °F 87% 30.03 in 8.0 mi South 5.8 mph - N/A   Overcast
5:53 AM 60.1 °F 53.1 °F 78% 30.02 in 10.0 mi SSE 6.9 mph - N/A   Overcast
6:53 AM 59.0 °F 53.1 °F 81% 30.01 in 9.0 mi SSW 3.5 mph - 0.00 in   Overcast
7:53 AM 59.0 °F 53.1 °F 81% 30.01 in 8.0 mi SSW 3.5 mph - N/A   Overcast
8:53 AM 60.1 °F 53.1 °F 78% 30.01 in 6.0 mi South 5.8 mph - N/A   Haze
9:53 AM 62.1 °F 54.0 °F 75% 30.02 in 7.0 mi South 3.5 mph - N/A   Mostly Cloudy
10:53 AM 63.0 °F 54.0 °F 72% 30.03 in 8.0 mi South 6.9 mph - N/A   Partly Cloudy
11:53 AM 66.0 °F 55.0 °F 68% 30.01 in 10.0 mi SSE 11.5 mph - 0.00 in   Mostly Cloudy
12:53 PM 66.0 °F 54.0 °F 65% 30.02 in 10.0 mi SSE 9.2 mph - N/A   Overcast
1:53 PM 66.0 °F 54.0 °F 65% 30.03 in 10.0 mi SSW 10.4 mph - 0.01 in Rain Light Rain
2:53 PM 66.0 °F 54.0 °F 65% 30.00 in 9.0 mi South 16.1 mph 24.2 mph 0.00 in   Overcast
4:10 PM 59.0 °F 57.2 °F 94% 30.02 in 7.0 mi NNE 10.4 mph - 0.00 in Rain Light Rain
4:43 PM 57.2 °F 57.2 °F 100% 30.04 in 5.0 mi NE 8.1 mph - 0.03 in Rain Rain
4:53 PM 57.9 °F 57.0 °F 97% 30.04 in 6.0 mi NE 10.4 mph - 0.03 in Rain Light Rain
5:53 PM 59.0 °F 57.0 °F 93% 30.06 in 9.0 mi ENE 9.2 mph - 0.01 in   Overcast
6:53 PM 59.0 °F 57.0 °F 93% 30.09 in 10.0 mi SE 9.2 mph - N/A   Overcast
7:53 PM 59.0 °F 57.0 °F 93% 30.09 in 10.0 mi ESE 6.9 mph - 0.00 in Rain Light Rain
8:53 PM 59.0 °F 55.9 °F 90% 30.11 in 10.0 mi SSE 5.8 mph - 0.00 in   Overcast
10:53 PM 59.0 °F 55.0 °F 87% 30.12 in 10.0 mi Calm Calm - N/A   Overcast
11:53 PM 57.9 °F 55.0 °F 90% 30.12 in 10.0 mi SE 5.8 mph - 0.00 in   Scattered Clouds